sat.trackr.live / text

‹ back to catalog

KUIPER-00317

NORAD 68600 · 2026-072AD

PAYLOAD ACTIVE UNKNOWN

§ Identity

Operator
Country
US
Launch date
2026-04-04
Launch site
AFETR
Launch vehicle
Mass (kg)
RCS (m²)

External: N2YO · Heavens-Above · Gunter

§ Orbital elements

Epoch: 2026-05-24T19:44:41.896896Z

Period
93.65 min
Inclination
51.8692°
Eccentricity
0.0009407
Mean motion
15.37592573 rev/d
Perigee alt
446.8 km
Apogee alt
459.7 km
Semi-major
6,831.4 km
B*
6.2825e-4
RAAN
290.0599°
Arg perigee
295.5086°
Mean anomaly
64.4927°
Rev number
778

§ Raw data

KUIPER-003171 68600U 26072AD  26144.82270714  .00023250  00000+0  62825-3 0  99922 68600  51.8692 290.0599 0009407 295.5086  64.4927 15.37592573  7783

JSON: /api/v1/satellites/68600 · /tle

For live sub-satellite position, see the globe view (requires WebGL).

§ Visibility from observer

Set your observer location to see the next 7 days of passes ≥ 10°. The values pass through the URL so the page stays shareable.

No JS? Fill the form by hand. The geolocation button needs JavaScript.